Time,TemperatureF,DewpointF,PressureIn,WindDirection,WindDirectionDegrees,WindSpeedMPH,WindSpeedGustMPH,Humidity,HourlyPrecipIn,Conditions,Clouds,dailyrainin,SolarRadiationWatts/m^2,SoftwareType,DateUTC
2013-04-27 00:01:00,35.8,25.6,30.47,SE,136,0.0,0.0,66,0.00,,,0.00,0,LWC V2.00 B727,2013-04-27 06:01:00,
2013-04-27 00:02:00,35.7,25.5,30.47,SE,136,0.0,0.0,66,0.00,,,0.00,0,LWC V2.00 B727,2013-04-27 06:02:00,
2013-04-27 00:07:00,35.6,25.4,30.47,SE,136,0.0,0.0,66,0.00,,,0.00,0,LWC V2.00 B727,2013-04-27 06:07:00,
2013-04-27 00:12:00,35.4,25.5,30.47,SE,136,0.0,0.0,67,0.00,,,0.00,0,LWC V2.00 B727,2013-04-27 06:12:00,
2013-04-27 00:17:00,35.2,25.7,30.47,SE,136,0.0,2.0,68,0.00,,,0.00,0,LWC V2.00 B727,2013-04-27 06:17:00,
2013-04-27 00:22:00,35.3,25.8,30.47,SE,140,1.0,3.0,68,0.00,,,0.00,0,LWC V2.00 B727,2013-04-27 06:22:00,
2013-04-27 00:27:00,35.5,26.4,30.47,SE,146,1.0,2.0,69,0.00,,,0.00,0,LWC V2.00 B727,2013-04-27 06:27:00,
2013-04-27 00:32:00,35.5,26.4,30.47,SSE,159,2.0,4.0,69,0.00,,,0.00,0,LWC V2.00 B727,2013-04-27 06:32:00,
2013-04-27 00:37:00,35.3,25.8,30.48,SSE,161,0.0,2.0,68,0.00,,,0.00,0,LWC V2.00 B727,2013-04-27 06:37:00,
2013-04-27 00:42:00,35.2,25.7,30.48,SSE,161,0.0,0.0,68,0.00,,,0.00,0,LWC V2.00 B727,2013-04-27 06:42:00,
2013-04-27 00:47:00,34.9,25.4,30.48,SSE,161,0.0,1.0,68,0.00,,,0.00,0,LWC V2.00 B727,2013-04-27 06:47:00,
2013-04-27 00:52:00,34.6,25.5,30.48,SSE,161,0.0,2.0,69,0.00,,,0.00,0,LWC V2.00 B727,2013-04-27 06:52:00,
2013-04-27 00:57:00,34.4,25.3,30.48,SSE,161,0.0,0.0,69,0.00,,,0.00,0,LWC V2.00 B727,2013-04-27 06:57:00,
2013-04-27 01:02:00,34.4,25.3,30.47,South,182,2.0,4.0,69,0.00,,,0.00,0,LWC V2.00 B727,2013-04-27 07:02:00,
2013-04-27 01:07:00,34.4,25.3,30.47,South,182,0.0,3.0,69,0.00,,,0.00,0,LWC V2.00 B727,2013-04-27 07:07:00,
2013-04-27 01:12:00,34.4,25.3,30.47,South,173,3.0,4.0,69,0.00,,,0.00,0,LWC V2.00 B727,2013-04-27 07:12:00,
2013-04-27 01:17:00,34.4,25.6,30.47,South,173,1.0,4.0,70,0.00,,,0.00,0,LWC V2.00 B727,2013-04-27 07:17:00,
2013-04-27 01:22:00,34.4,25.6,30.47,South,179,4.0,4.0,70,0.00,,,0.00,0,LWC V2.00 B727,2013-04-27 07:22:00,
2013-04-27 01:27:00,34.4,25.6,30.47,South,171,0.0,4.0,70,0.00,,,0.00,0,LWC V2.00 B727,2013-04-27 07:27:00,
2013-04-27 01:32:00,34.4,25.3,30.47,SSE,165,2.0,5.0,69,0.00,,,0.00,0,LWC V2.00 B727,2013-04-27 07:32:00,
2013-04-27 01:37:00,34.4,25.3,30.47,South,175,2.0,6.0,69,0.00,,,0.00,0,LWC V2.00 B727,2013-04-27 07:37:00,
2013-04-27 01:42:00,34.4,25.3,30.47,SSE,159,2.0,5.0,69,0.00,,,0.00,0,LWC V2.00 B727,2013-04-27 07:42:00,
2013-04-27 01:47:00,34.4,25.3,30.47,SSE,158,3.0,5.0,69,0.00,,,0.00,0,LWC V2.00 B727,2013-04-27 07:47:00,
2013-04-27 01:52:00,34.4,25.0,30.47,SSE,153,2.0,3.0,68,0.00,,,0.00,0,LWC V2.00 B727,2013-04-27 07:52:00,
2013-04-27 01:57:00,34.5,25.0,30.47,SSE,150,2.0,5.0,68,0.00,,,0.00,0,LWC V2.00 B727,2013-04-27 07:57:00,
2013-04-27 02:02:00,34.7,24.9,30.47,SSE,159,3.0,5.0,67,0.00,,,0.00,0,LWC V2.00 B727,2013-04-27 08:02:00,
2013-04-27 02:07:00,34.8,25.3,30.47,SSE,159,3.0,4.0,68,0.00,,,0.00,0,LWC V2.00 B727,2013-04-27 08:07:00,
2013-04-27 02:12:00,34.8,25.3,30.47,SSE,165,2.0,5.0,68,0.00,,,0.00,0,LWC V2.00 B727,2013-04-27 08:12:00,
2013-04-27 02:17:00,34.7,25.2,30.47,SSE,156,2.0,4.0,68,0.00,,,0.00,0,LWC V2.00 B727,2013-04-27 08:17:00,
2013-04-27 02:22:00,34.7,25.2,30.47,SSE,165,2.0,3.0,68,0.00,,,0.00,0,LWC V2.00 B727,2013-04-27 08:22:00,
2013-04-27 02:27:00,34.6,25.1,30.47,SSE,157,1.0,3.0,68,0.00,,,0.00,0,LWC V2.00 B727,2013-04-27 08:27:00,
2013-04-27 02:32:00,34.6,25.1,30.46,SSE,157,1.0,3.0,68,0.00,,,0.00,0,LWC V2.00 B727,2013-04-27 08:32:00,
2013-04-27 02:37:00,34.7,25.2,30.46,SSE,163,1.0,2.0,68,0.00,,,0.00,0,LWC V2.00 B727,2013-04-27 08:37:00,
2013-04-27 02:42:00,34.7,24.9,30.46,SSE,163,0.0,2.0,67,0.00,,,0.00,0,LWC V2.00 B727,2013-04-27 08:42:00,
2013-04-27 02:47:00,34.8,25.0,30.46,SSE,164,2.0,2.0,67,0.00,,,0.00,0,LWC V2.00 B727,2013-04-27 08:47:00,
2013-04-27 02:52:00,34.7,24.9,30.46,SSE,164,0.0,0.0,67,0.00,,,0.00,0,LWC V2.00 B727,2013-04-27 08:52:00,
2013-04-27 02:57:00,34.6,24.4,30.47,SSE,164,0.0,0.0,66,0.00,,,0.00,0,LWC V2.00 B727,2013-04-27 08:57:00,
2013-04-27 03:02:00,34.4,24.6,30.47,SSE,164,0.0,1.0,67,0.00,,,0.00,0,LWC V2.00 B727,2013-04-27 09:02:00,
2013-04-27 03:07:00,34.4,24.2,30.47,SSE,164,0.0,0.0,66,0.00,,,0.00,0,LWC V2.00 B727,2013-04-27 09:07:00,
2013-04-27 03:12:00,34.0,24.2,30.47,SSE,164,0.0,0.0,67,0.00,,,0.01,0,LWC V2.00 B727,2013-04-27 09:12:00,
2013-04-27 03:17:00,33.7,23.9,30.47,SSE,164,0.0,0.0,67,0.00,,,0.01,0,LWC V2.00 B727,2013-04-27 09:17:00,
2013-04-27 03:22:00,33.3,23.9,30.47,SSE,164,0.0,0.0,68,0.00,,,0.01,0,LWC V2.00 B727,2013-04-27 09:22:00,
2013-04-27 03:27:00,32.9,23.9,30.47,SSE,164,0.0,0.0,69,0.00,,,0.01,0,LWC V2.00 B727,2013-04-27 09:27:00,
2013-04-27 03:32:00,32.5,23.8,30.47,SSE,164,0.0,0.0,70,0.00,,,0.01,0,LWC V2.00 B727,2013-04-27 09:32:00,
2013-04-27 03:37:00,32.3,24.3,30.47,SSE,164,0.0,1.0,72,0.00,,,0.01,0,LWC V2.00 B727,2013-04-27 09:37:00,
2013-04-27 03:42:00,32.0,24.3,30.47,SSE,164,0.0,0.0,73,0.00,,,0.01,0,LWC V2.00 B727,2013-04-27 09:42:00,
2013-04-27 03:47:00,31.7,24.1,30.47,SSE,164,0.0,0.0,73,0.00,,,0.01,0,LWC V2.00 B727,2013-04-27 09:47:00,
2013-04-27 03:52:00,31.6,24.3,30.47,SSE,164,0.0,1.0,74,0.00,,,0.01,0,LWC V2.00 B727,2013-04-27 09:52:00,
2013-04-27 03:57:00,31.5,24.2,30.48,SSE,164,0.0,1.0,74,0.00,,,0.01,0,LWC V2.00 B727,2013-04-27 09:57:00,
2013-04-27 04:02:00,31.5,24.2,30.48,SSE,164,0.0,0.0,74,0.00,,,0.01,0,LWC V2.00 B727,2013-04-27 10:02:00,
2013-04-27 04:07:00,31.5,24.2,30.48,SSE,164,0.0,0.0,74,0.00,,,0.01,0,LWC V2.00 B727,2013-04-27 10:07:00,
2013-04-27 04:12:00,31.5,24.2,30.47,SSE,164,0.0,1.0,74,0.00,,,0.01,0,LWC V2.00 B727,2013-04-27 10:12:00,
2013-04-27 04:17:00,31.5,24.2,30.47,SSE,163,0.0,2.0,74,0.00,,,0.01,0,LWC V2.00 B727,2013-04-27 10:17:00,
2013-04-27 04:22:00,31.6,24.3,30.48,SSE,164,1.0,2.0,74,0.00,,,0.01,0,LWC V2.00 B727,2013-04-27 10:22:00,
2013-04-27 04:27:00,31.8,24.8,30.48,SSE,164,1.0,4.0,75,0.00,,,0.01,0,LWC V2.00 B727,2013-04-27 10:27:00,
2013-04-27 04:32:00,32.0,25.0,30.48,SSE,165,3.0,3.0,75,0.00,,,0.01,0,LWC V2.00 B727,2013-04-27 10:32:00,
2013-04-27 04:37:00,32.2,24.9,30.47,SSE,164,0.0,2.0,74,0.00,,,0.01,0,LWC V2.00 B727,2013-04-27 10:37:00,
2013-04-27 04:42:00,32.3,25.0,30.47,SSE,155,3.0,3.0,74,0.00,,,0.01,0,LWC V2.00 B727,2013-04-27 10:42:00,
2013-04-27 04:47:00,32.5,25.2,30.47,SSE,149,2.0,4.0,74,0.00,,,0.01,0,LWC V2.00 B727,2013-04-27 10:47:00,
2013-04-27 04:52:00,32.8,25.4,30.47,SSE,153,1.0,3.0,74,0.00,,,0.01,0,LWC V2.00 B727,2013-04-27 10:52:00,
2013-04-27 04:57:00,32.9,25.2,30.48,South,172,3.0,3.0,73,0.00,,,0.01,0,LWC V2.00 B727,2013-04-27 10:57:00,
2013-04-27 05:02:00,33.0,25.3,30.48,South,173,2.0,3.0,73,0.00,,,0.01,0,LWC V2.00 B727,2013-04-27 11:02:00,
2013-04-27 05:07:00,32.9,25.2,30.48,South,173,1.0,2.0,73,0.00,,,0.01,0,LWC V2.00 B727,2013-04-27 11:07:00,
2013-04-27 05:12:00,32.8,25.4,30.48,South,178,2.0,5.0,74,0.00,,,0.01,0,LWC V2.00 B727,2013-04-27 11:12:00,
2013-04-27 05:17:00,32.8,25.4,30.48,South,176,2.0,4.0,74,0.00,,,0.01,0,LWC V2.00 B727,2013-04-27 11:17:00,
2013-04-27 05:22:00,32.8,25.4,30.48,SSE,165,3.0,3.0,74,0.00,,,0.01,0,LWC V2.00 B727,2013-04-27 11:22:00,
2013-04-27 05:27:00,32.8,25.4,30.48,South,186,4.0,5.0,74,0.00,,,0.01,0,LWC V2.00 B727,2013-04-27 11:27:00,
2013-04-27 05:32:00,32.9,25.5,30.48,South,175,3.0,4.0,74,0.00,,,0.01,0,LWC V2.00 B727,2013-04-27 11:32:00,
2013-04-27 05:37:00,32.9,25.5,30.48,SSE,160,2.0,4.0,74,0.00,,,0.01,0,LWC V2.00 B727,2013-04-27 11:37:00,
2013-04-27 05:42:00,33.0,25.3,30.48,South,176,4.0,4.0,73,0.00,,,0.01,0,LWC V2.00 B727,2013-04-27 11:42:00,
2013-04-27 05:47:00,33.1,25.4,30.48,South,171,3.0,4.0,73,0.00,,,0.01,0,LWC V2.00 B727,2013-04-27 11:47:00,
2013-04-27 05:52:00,33.0,25.3,30.48,South,173,1.0,4.0,73,0.00,,,0.01,0,LWC V2.00 B727,2013-04-27 11:52:00,
2013-04-27 05:57:00,33.0,25.6,30.48,South,173,3.0,5.0,74,0.00,,,0.01,0,LWC V2.00 B727,2013-04-27 11:57:00,
2013-04-27 06:02:00,32.9,25.5,30.48,SSE,166,2.0,5.0,74,0.00,,,0.01,0,LWC V2.00 B727,2013-04-27 12:02:00,
2013-04-27 06:07:00,32.9,25.5,30.48,South,180,1.0,4.0,74,0.00,,,0.01,0,LWC V2.00 B727,2013-04-27 12:07:00,
2013-04-27 06:12:00,32.9,25.5,30.49,South,178,2.0,4.0,74,0.00,,,0.01,0,LWC V2.00 B727,2013-04-27 12:12:00,
2013-04-27 06:17:00,32.9,25.5,30.49,South,173,3.0,5.0,74,0.00,,,0.01,5,LWC V2.00 B727,2013-04-27 12:17:00,
2013-04-27 06:22:00,33.0,25.3,30.49,South,172,2.0,5.0,73,0.00,,,0.01,9,LWC V2.00 B727,2013-04-27 12:22:00,
2013-04-27 06:27:00,33.0,25.3,30.49,South,169,4.0,4.0,73,0.00,,,0.01,12,LWC V2.00 B727,2013-04-27 12:27:00,
2013-04-27 06:32:00,33.0,25.6,30.49,South,182,4.0,4.0,74,0.00,,,0.01,16,LWC V2.00 B727,2013-04-27 12:32:00,
2013-04-27 06:37:00,33.0,25.6,30.49,South,186,4.0,4.0,74,0.00,,,0.01,19,LWC V2.00 B727,2013-04-27 12:37:00,
2013-04-27 06:42:00,33.1,25.7,30.49,South,175,2.0,4.0,74,0.00,,,0.01,21,LWC V2.00 B727,2013-04-27 12:42:00,
2013-04-27 06:47:00,33.2,25.8,30.49,South,176,3.0,4.0,74,0.00,,,0.01,28,LWC V2.00 B727,2013-04-27 12:47:00,
2013-04-27 06:53:00,33.4,26.0,30.49,South,179,2.0,3.0,74,0.00,,,0.01,39,LWC V2.00 B727,2013-04-27 12:53:00,
2013-04-27 06:58:00,33.7,26.3,30.49,South,180,3.0,4.0,74,0.00,,,0.01,51,LWC V2.00 B727,2013-04-27 12:58:00,
2013-04-27 07:03:00,34.2,26.8,30.49,South,181,0.0,4.0,74,0.00,,,0.01,65,LWC V2.00 B727,2013-04-27 13:03:00,
2013-04-27 07:08:00,34.6,26.9,30.49,South,173,1.0,3.0,73,0.00,,,0.01,83,LWC V2.00 B727,2013-04-27 13:08:00,
2013-04-27 07:12:00,35.2,27.4,30.49,South,173,0.0,1.0,73,0.00,,,0.01,102,LWC V2.00 B727,2013-04-27 13:12:00,
2013-04-27 07:18:00,35.7,27.9,30.49,South,174,1.0,2.0,73,0.00,,,0.01,120,LWC V2.00 B727,2013-04-27 13:18:00,
2013-04-27 07:23:00,36.4,28.2,30.50,South,174,0.0,1.0,72,0.00,,,0.01,141,LWC V2.00 B727,2013-04-27 13:23:00,
2013-04-27 07:28:00,37.1,28.9,30.49,South,174,0.0,0.0,72,0.00,,,0.01,163,LWC V2.00 B727,2013-04-27 13:28:00,
2013-04-27 07:33:00,37.8,29.3,30.49,South,174,0.0,0.0,71,0.00,,,0.01,186,LWC V2.00 B727,2013-04-27 13:33:00,
2013-04-27 07:38:00,38.4,30.2,30.50,South,174,0.0,0.0,72,0.00,,,0.01,211,LWC V2.00 B727,2013-04-27 13:38:00,
2013-04-27 07:43:00,39.1,30.8,30.50,South,173,0.0,0.0,72,0.00,,,0.01,234,LWC V2.00 B727,2013-04-27 13:43:00,
2013-04-27 07:48:00,39.8,31.2,30.50,South,174,0.0,0.0,71,0.00,,,0.02,255,LWC V2.00 B727,2013-04-27 13:48:00,
2013-04-27 07:53:00,40.7,31.3,30.50,South,173,0.0,0.0,69,0.00,,,0.02,274,LWC V2.00 B727,2013-04-27 13:53:00,
2013-04-27 07:58:00,41.7,31.9,30.50,South,174,0.0,0.0,68,0.06,,,0.03,294,LWC V2.00 B727,2013-04-27 13:58:00,
2013-04-27 08:03:00,42.6,32.4,30.50,South,173,0.0,0.0,67,0.06,,,0.03,313,LWC V2.00 B727,2013-04-27 14:03:00,
2013-04-27 08:08:00,43.5,33.3,30.50,South,174,1.0,1.0,67,0.04,,,0.03,332,LWC V2.00 B727,2013-04-27 14:08:00,
2013-04-27 08:13:00,44.3,33.3,30.50,South,174,0.0,0.0,65,0.00,,,0.04,352,LWC V2.00 B727,2013-04-27 14:13:00,
2013-04-27 08:18:00,45.1,33.7,30.50,South,173,0.0,0.0,64,0.00,,,0.04,369,LWC V2.00 B727,2013-04-27 14:18:00,
2013-04-27 08:23:00,46.1,33.8,30.49,South,174,0.0,0.0,62,0.07,,,0.05,390,LWC V2.00 B727,2013-04-27 14:23:00,
2013-04-27 08:28:00,47.0,33.8,30.50,South,174,0.0,1.0,60,0.07,,,0.05,410,LWC V2.00 B727,2013-04-27 14:28:00,
2013-04-27 08:33:00,47.9,34.3,30.50,SE,130,1.0,3.0,59,0.05,,,0.05,429,LWC V2.00 B727,2013-04-27 14:33:00,
2013-04-27 08:38:00,48.7,34.6,30.50,SE,130,2.0,3.0,58,0.04,,,0.05,448,LWC V2.00 B727,2013-04-27 14:38:00,
2013-04-27 08:43:00,49.4,34.4,30.49,ESE,103,0.0,1.0,56,0.00,,,0.06,468,LWC V2.00 B727,2013-04-27 14:43:00,
2013-04-27 08:48:00,50.0,35.8,30.50,East,96,3.0,3.0,58,0.00,,,0.06,485,LWC V2.00 B727,2013-04-27 14:48:00,
2013-04-27 08:53:00,50.5,34.0,30.49,NE,45,0.0,3.0,53,0.00,,,0.06,503,LWC V2.00 B727,2013-04-27 14:53:00,
2013-04-27 08:58:00,50.9,33.9,30.49,NE,42,0.0,4.0,52,0.05,,,0.07,520,LWC V2.00 B727,2013-04-27 14:58:00,
2013-04-27 09:03:00,51.3,33.8,30.49,NE,41,1.0,2.0,51,0.05,,,0.07,540,LWC V2.00 B727,2013-04-27 15:03:00,
2013-04-27 09:08:00,51.7,32.6,30.49,NNE,26,0.0,0.0,48,0.04,,,0.07,557,LWC V2.00 B727,2013-04-27 15:08:00,
2013-04-27 09:13:00,52.1,35.0,30.49,NNE,18,2.0,4.0,52,0.00,,,0.07,575,LWC V2.00 B727,2013-04-27 15:13:00,
2013-04-27 09:18:00,52.4,33.8,30.49,North,349,1.0,4.0,49,0.00,,,0.07,592,LWC V2.00 B727,2013-04-27 15:18:00,
2013-04-27 09:23:00,52.6,34.5,30.49,North,350,4.0,4.0,50,0.00,,,0.07,610,LWC V2.00 B727,2013-04-27 15:23:00,
2013-04-27 09:28:00,52.9,33.7,30.49,North,355,2.0,4.0,48,0.00,,,0.07,626,LWC V2.00 B727,2013-04-27 15:28:00,
2013-04-27 09:33:00,53.1,33.4,30.49,West,276,0.0,4.0,47,0.00,,,0.08,642,LWC V2.00 B727,2013-04-27 15:33:00,
2013-04-27 09:38:00,53.6,35.4,30.48,West,271,1.0,3.0,50,0.00,,,0.08,661,LWC V2.00 B727,2013-04-27 15:38:00,
2013-04-27 09:43:00,54.1,35.4,30.49,NW,320,0.0,2.0,49,0.00,,,0.08,677,LWC V2.00 B727,2013-04-27 15:43:00,
2013-04-27 09:48:00,54.4,34.1,30.48,NW,320,0.0,3.0,46,0.00,,,0.08,691,LWC V2.00 B727,2013-04-27 15:48:00,
2013-04-27 09:53:00,54.7,34.9,30.48,NNW,330,2.0,2.0,47,0.00,,,0.08,710,LWC V2.00 B727,2013-04-27 15:53:00,
2013-04-27 09:58:00,55.0,35.1,30.48,NNW,334,1.0,2.0,47,0.00,,,0.08,726,LWC V2.00 B727,2013-04-27 15:58:00,
2013-04-27 10:03:00,55.3,33.8,30.48,NNW,332,1.0,1.0,44,0.00,,,0.09,738,LWC V2.00 B727,2013-04-27 16:03:00,
2013-04-27 10:08:00,55.7,32.4,30.48,SW,225,6.0,7.0,41,0.00,,,0.09,754,LWC V2.00 B727,2013-04-27 16:08:00,
2013-04-27 10:13:00,56.0,32.0,30.48,NNE,24,2.0,5.0,40,0.00,,,0.09,772,LWC V2.00 B727,2013-04-27 16:13:00,
2013-04-27 10:18:00,56.4,32.4,30.48,WSW,238,5.0,5.0,40,0.00,,,0.09,788,LWC V2.00 B727,2013-04-27 16:18:00,
2013-04-27 10:23:00,56.8,32.7,30.48,WNW,298,2.0,5.0,40,0.00,,,0.09,803,LWC V2.00 B727,2013-04-27 16:23:00,
2013-04-27 10:28:00,57.2,32.5,30.48,West,280,0.0,1.0,39,0.00,,,0.09,816,LWC V2.00 B727,2013-04-27 16:28:00,
2013-04-27 10:33:00,57.3,32.6,30.48,NNE,31,1.0,3.0,39,0.00,,,0.09,830,LWC V2.00 B727,2013-04-27 16:33:00,
2013-04-27 10:38:00,57.5,34.0,30.48,SSW,213,3.0,5.0,41,0.00,,,0.09,842,LWC V2.00 B727,2013-04-27 16:38:00,
2013-04-27 10:43:00,57.9,32.5,30.48,NNW,344,2.0,5.0,38,0.00,,,0.09,858,LWC V2.00 B727,2013-04-27 16:43:00,
2013-04-27 10:48:00,58.2,30.7,30.48,SW,227,0.0,6.0,35,0.00,,,0.09,870,LWC V2.00 B727,2013-04-27 16:48:00,
2013-04-27 10:53:00,58.5,32.3,30.48,NW,322,1.0,3.0,37,0.00,,,0.09,884,LWC V2.00 B727,2013-04-27 16:53:00,
2013-04-27 10:58:00,59.0,30.7,30.47,NW,317,0.0,7.0,34,0.00,,,0.09,893,LWC V2.00 B727,2013-04-27 16:58:00,
2013-04-27 11:03:00,59.0,33.4,30.47,SW,231,3.0,6.0,38,0.00,,,0.09,909,LWC V2.00 B727,2013-04-27 17:03:00,
2013-04-27 11:08:00,59.3,31.7,30.47,SSW,198,5.0,5.0,35,0.00,,,0.09,919,LWC V2.00 B727,2013-04-27 17:08:00,
2013-04-27 11:13:00,59.8,32.1,30.47,West,261,2.0,5.0,35,0.00,,,0.09,930,LWC V2.00 B727,2013-04-27 17:13:00,
2013-04-27 11:18:00,60.2,31.7,30.46,North,355,6.0,6.0,34,0.00,,,0.09,939,LWC V2.00 B727,2013-04-27 17:18:00,
2013-04-27 11:23:00,60.2,33.8,30.46,West,259,2.0,4.0,37,0.00,,,0.09,953,LWC V2.00 B727,2013-04-27 17:23:00,
2013-04-27 11:28:00,60.6,32.8,30.46,NNE,26,4.0,4.0,35,0.00,,,0.09,960,LWC V2.00 B727,2013-04-27 17:28:00,
2013-04-27 11:33:00,61.0,32.4,30.46,SW,223,3.0,4.0,34,0.00,,,0.09,972,LWC V2.00 B727,2013-04-27 17:33:00,
2013-04-27 11:38:00,61.4,32.0,30.46,WSW,244,5.0,5.0,33,0.00,,,0.09,981,LWC V2.00 B727,2013-04-27 17:38:00,
2013-04-27 11:43:00,61.5,29.0,30.46,SW,227,3.0,10.0,29,0.00,,,0.09,997,LWC V2.00 B727,2013-04-27 17:43:00,
2013-04-27 11:48:00,61.6,28.2,30.46,North,5,2.0,5.0,28,0.00,,,0.09,1005,LWC V2.00 B727,2013-04-27 17:48:00,
2013-04-27 11:53:00,61.6,29.9,30.46,WSW,242,5.0,8.0,30,0.00,,,0.09,1009,LWC V2.00 B727,2013-04-27 17:53:00,
2013-04-27 11:58:00,61.8,30.8,30.45,SSE,148,0.0,4.0,31,0.00,,,0.09,1021,LWC V2.00 B727,2013-04-27 17:58:00,
2013-04-27 12:03:00,62.4,31.4,30.45,SW,231,0.0,5.0,31,0.00,,,0.09,1021,LWC V2.00 B727,2013-04-27 18:03:00,
2013-04-27 12:08:00,62.8,30.1,30.45,SSW,205,7.0,8.0,29,0.00,,,0.10,1025,LWC V2.00 B727,2013-04-27 18:08:00,
2013-04-27 12:13:00,62.6,28.2,30.44,SSW,213,2.0,7.0,27,0.00,,,0.10,1041,LWC V2.00 B727,2013-04-27 18:13:00,
2013-04-27 12:18:00,63.1,30.3,30.44,WSW,248,2.0,5.0,29,0.00,,,0.10,1035,LWC V2.00 B727,2013-04-27 18:18:00,
2013-04-27 12:23:00,63.5,28.0,30.44,SW,232,9.0,9.0,26,0.00,,,0.10,1048,LWC V2.00 B727,2013-04-27 18:23:00,
2013-04-27 12:28:00,63.6,27.1,30.44,NNE,13,0.0,9.0,25,0.00,,,0.10,1037,LWC V2.00 B727,2013-04-27 18:28:00,
2013-04-27 12:33:00,63.2,27.7,30.44,SSW,211,2.0,4.0,26,0.00,,,0.10,1041,LWC V2.00 B727,2013-04-27 18:33:00,
2013-04-27 12:38:00,63.2,26.8,30.44,NE,52,1.0,3.0,25,0.00,,,0.10,1037,LWC V2.00 B727,2013-04-27 18:38:00,
2013-04-27 12:43:00,63.6,27.1,30.43,SW,228,3.0,6.0,25,0.00,,,0.10,1051,LWC V2.00 B727,2013-04-27 18:43:00,
2013-04-27 12:48:00,63.8,26.3,30.43,SSW,203,6.0,9.0,24,0.00,,,0.10,1048,LWC V2.00 B727,2013-04-27 18:48:00,
2013-04-27 12:53:00,63.9,28.3,30.43,NNW,346,3.0,4.0,26,0.00,,,0.10,1051,LWC V2.00 B727,2013-04-27 18:53:00,
2013-04-27 12:58:00,63.9,27.4,30.43,SW,217,0.0,2.0,25,0.00,,,0.10,1049,LWC V2.00 B727,2013-04-27 18:58:00,
2013-04-27 13:03:00,64.9,29.2,30.42,WSW,249,1.0,8.0,26,0.00,,,0.10,1060,LWC V2.00 B727,2013-04-27 19:03:00,
2013-04-27 13:08:00,65.2,27.5,30.42,North,351,3.0,7.0,24,0.00,,,0.10,1060,LWC V2.00 B727,2013-04-27 19:08:00,
2013-04-27 13:13:00,65.0,30.2,30.42,SW,229,6.0,9.0,27,0.00,,,0.10,1069,LWC V2.00 B727,2013-04-27 19:13:00,
2013-04-27 13:18:00,65.1,31.2,30.41,SW,222,6.0,8.0,28,0.00,,,0.10,1065,LWC V2.00 B727,2013-04-27 19:18:00,
2013-04-27 13:23:00,65.2,31.3,30.41,NNE,24,1.0,9.0,28,0.00,,,0.10,1071,LWC V2.00 B727,2013-04-27 19:23:00,
2013-04-27 13:28:00,65.1,30.3,30.41,SW,218,3.0,5.0,27,0.00,,,0.10,1074,LWC V2.00 B727,2013-04-27 19:28:00,
2013-04-27 13:33:00,64.7,29.0,30.40,SSW,195,0.0,3.0,26,0.00,,,0.10,1086,LWC V2.00 B727,2013-04-27 19:33:00,
2013-04-27 13:38:00,64.9,25.1,30.40,WSW,253,2.0,8.0,22,0.00,,,0.10,1121,LWC V2.00 B727,2013-04-27 19:38:00,
2013-04-27 13:43:00,65.7,26.9,30.40,WSW,241,9.0,10.0,23,0.00,,,0.10,1125,LWC V2.00 B727,2013-04-27 19:43:00,
2013-04-27 13:48:00,65.9,29.1,30.40,WSW,242,4.0,6.0,25,0.00,,,0.10,1165,LWC V2.00 B727,2013-04-27 19:48:00,
2013-04-27 13:53:00,66.3,29.4,30.39,NE,46,1.0,6.0,25,0.00,,,0.10,1130,LWC V2.00 B727,2013-04-27 19:53:00,
2013-04-27 13:58:00,65.9,30.0,30.39,North,5,3.0,8.0,26,0.00,,,0.10,1090,LWC V2.00 B727,2013-04-27 19:58:00,
2013-04-27 14:03:00,65.9,27.1,30.39,SW,236,2.0,10.0,23,0.00,,,0.10,1069,LWC V2.00 B727,2013-04-27 20:03:00,
2013-04-27 14:08:00,66.3,30.4,30.39,NNW,345,2.0,6.0,26,0.00,,,0.10,1056,LWC V2.00 B727,2013-04-27 20:08:00,
2013-04-27 14:13:00,66.5,26.5,30.38,North,0,4.0,10.0,22,0.00,,,0.10,1063,LWC V2.00 B727,2013-04-27 20:13:00,
2013-04-27 14:18:00,66.3,27.4,30.38,NNW,342,5.0,7.0,23,0.00,,,0.10,1044,LWC V2.00 B727,2013-04-27 20:18:00,
2013-04-27 14:23:00,66.1,28.3,30.38,WSW,242,4.0,9.0,24,0.00,,,0.10,1037,LWC V2.00 B727,2013-04-27 20:23:00,
2013-04-27 14:28:00,66.0,27.1,30.38,NNW,346,2.0,8.0,23,0.00,,,0.10,1023,LWC V2.00 B727,2013-04-27 20:28:00,
2013-04-27 14:33:00,65.8,27.0,30.37,NNE,22,3.0,9.0,23,0.00,,,0.10,1004,LWC V2.00 B727,2013-04-27 20:33:00,
2013-04-27 14:38:00,65.9,24.9,30.37,NNW,336,5.0,9.0,21,0.00,,,0.10,1013,LWC V2.00 B727,2013-04-27 20:38:00,
2013-04-27 14:43:00,65.9,27.1,30.37,NNW,328,3.0,6.0,23,0.00,,,0.10,1044,LWC V2.00 B727,2013-04-27 20:43:00,
2013-04-27 14:48:00,66.7,28.8,30.36,SW,222,4.0,7.0,24,0.00,,,0.10,1065,LWC V2.00 B727,2013-04-27 20:48:00,
2013-04-27 14:53:00,67.2,25.9,30.36,SSW,195,4.0,9.0,21,0.00,,,0.10,1020,LWC V2.00 B727,2013-04-27 20:53:00,
2013-04-27 14:58:00,67.2,29.2,30.36,SW,215,5.0,9.0,24,0.00,,,0.10,1035,LWC V2.00 B727,2013-04-27 20:58:00,
2013-04-27 15:03:00,67.4,28.3,30.36,SSW,206,2.0,5.0,23,0.00,,,0.10,587,LWC V2.00 B727,2013-04-27 21:03:00,
2013-04-27 15:08:00,66.6,26.6,30.35,North,5,5.0,6.0,22,0.00,,,0.10,339,LWC V2.00 B727,2013-04-27 21:08:00,
2013-04-27 15:13:00,65.5,25.6,30.35,North,5,4.0,8.0,22,0.00,,,0.10,364,LWC V2.00 B727,2013-04-27 21:13:00,
2013-04-27 15:18:00,64.5,27.9,30.35,NNW,334,3.0,5.0,25,0.00,,,0.10,830,LWC V2.00 B727,2013-04-27 21:18:00,
2013-04-27 15:23:00,64.1,30.3,30.35,North,0,6.0,8.0,28,0.00,,,0.10,548,LWC V2.00 B727,2013-04-27 21:23:00,
2013-04-27 15:28:00,63.7,27.2,30.35,NNE,21,2.0,11.0,25,0.00,,,0.10,420,LWC V2.00 B727,2013-04-27 21:28:00,
2013-04-27 15:33:00,63.6,29.0,30.34,NNE,24,5.0,8.0,27,0.00,,,0.10,555,LWC V2.00 B727,2013-04-27 21:33:00,
2013-04-27 15:38:00,63.8,29.2,30.34,ENE,74,0.0,6.0,27,0.00,,,0.10,649,LWC V2.00 B727,2013-04-27 21:38:00,
2013-04-27 15:43:00,64.8,29.1,30.33,NNE,29,3.0,8.0,26,0.00,,,0.10,889,LWC V2.00 B727,2013-04-27 21:43:00,
2013-04-27 15:48:00,65.4,26.6,30.33,North,5,0.0,4.0,23,0.00,,,0.10,865,LWC V2.00 B727,2013-04-27 21:48:00,
2013-04-27 15:53:00,65.9,26.0,30.33,NNE,17,6.0,7.0,22,0.00,,,0.10,849,LWC V2.00 B727,2013-04-27 21:53:00,
2013-04-27 15:59:00,66.1,27.2,30.33,NE,51,3.0,4.0,23,0.00,,,0.10,907,LWC V2.00 B727,2013-04-27 21:59:00,
2013-04-27 16:04:00,66.4,26.4,30.33,SW,228,3.0,6.0,22,0.00,,,0.10,682,LWC V2.00 B727,2013-04-27 22:04:00,
2013-04-27 16:09:00,66.4,26.4,30.32,NE,55,3.0,6.0,22,0.00,,,0.10,809,LWC V2.00 B727,2013-04-27 22:09:00,
2013-04-27 16:14:00,66.3,25.2,30.32,North,355,2.0,5.0,21,0.00,,,0.10,759,LWC V2.00 B727,2013-04-27 22:14:00,
2013-04-27 16:19:00,65.8,23.6,30.32,NW,321,3.0,7.0,20,0.00,,,0.10,190,LWC V2.00 B727,2013-04-27 22:19:00,
2013-04-27 16:24:00,65.1,24.2,30.32,SW,229,1.0,6.0,21,0.00,,,0.10,325,LWC V2.00 B727,2013-04-27 22:24:00,
2013-04-27 16:29:00,64.4,24.7,30.31,South,169,0.0,5.0,22,0.00,,,0.10,359,LWC V2.00 B727,2013-04-27 22:29:00,
2013-04-27 16:34:00,63.6,26.1,30.31,NNE,22,4.0,8.0,24,0.00,,,0.10,197,LWC V2.00 B727,2013-04-27 22:34:00,
2013-04-27 16:39:00,62.8,23.4,30.31,NNE,17,0.0,6.0,22,0.00,,,0.10,199,LWC V2.00 B727,2013-04-27 22:39:00,
2013-04-27 16:44:00,62.1,23.9,30.31,NNW,338,2.0,4.0,23,0.00,,,0.10,183,LWC V2.00 B727,2013-04-27 22:44:00,
2013-04-27 16:49:00,61.6,24.5,30.31,North,9,0.0,4.0,24,0.00,,,0.10,171,LWC V2.00 B727,2013-04-27 22:49:00,
2013-04-27 16:54:00,61.3,24.2,30.31,North,5,2.0,4.0,24,0.00,,,0.10,172,LWC V2.00 B727,2013-04-27 22:54:00,
2013-04-27 16:59:00,61.1,26.0,30.31,North,10,0.0,6.0,26,0.00,,,0.10,193,LWC V2.00 B727,2013-04-27 22:59:00,
2013-04-27 17:04:00,60.9,23.9,30.31,North,11,0.0,0.0,24,0.00,,,0.10,181,LWC V2.00 B727,2013-04-27 23:04:00,
2013-04-27 17:09:00,60.7,26.5,30.31,North,10,0.0,1.0,27,0.00,,,0.10,151,LWC V2.00 B727,2013-04-27 23:09:00,
2013-04-27 17:14:00,60.5,24.5,30.31,North,10,0.0,0.0,25,0.00,,,0.10,199,LWC V2.00 B727,2013-04-27 23:14:00,
2013-04-27 17:19:00,60.4,24.4,30.31,North,10,0.0,0.0,25,0.00,,,0.10,186,LWC V2.00 B727,2013-04-27 23:19:00,
2013-04-27 17:24:00,60.4,26.3,30.31,North,10,0.0,2.0,27,0.00,,,0.10,253,LWC V2.00 B727,2013-04-27 23:24:00,
2013-04-27 17:29:00,60.6,23.6,30.30,North,10,0.0,3.0,24,0.00,,,0.10,200,LWC V2.00 B727,2013-04-27 23:29:00,
2013-04-27 17:34:00,60.6,24.6,30.30,North,5,1.0,4.0,25,0.00,,,0.10,91,LWC V2.00 B727,2013-04-27 23:34:00,
2013-04-27 17:39:00,60.4,23.4,30.31,North,9,0.0,3.0,24,0.00,,,0.10,69,LWC V2.00 B727,2013-04-27 23:39:00,
2013-04-27 17:44:00,60.1,22.2,30.31,North,9,0.0,2.0,23,0.00,,,0.10,67,LWC V2.00 B727,2013-04-27 23:44:00,
2013-04-27 17:49:00,59.7,22.9,30.31,North,9,0.0,3.0,24,0.00,,,0.10,67,LWC V2.00 B727,2013-04-27 23:49:00,
2013-04-27 17:54:00,59.4,23.6,30.31,North,9,1.0,3.0,25,0.00,,,0.10,70,LWC V2.00 B727,2013-04-27 23:54:00,
2013-04-27 17:59:00,59.0,23.2,30.31,North,9,0.0,0.0,25,0.00,,,0.10,69,LWC V2.00 B727,2013-04-27 23:59:00,
2013-04-27 18:04:00,59.0,23.2,30.31,North,9,2.0,3.0,25,0.00,,,0.10,69,LWC V2.00 B727,2013-04-28 00:04:00,
2013-04-27 18:09:00,58.6,22.9,30.31,North,9,2.0,4.0,25,0.00,,,0.10,225,LWC V2.00 B727,2013-04-28 00:09:00,
2013-04-27 18:14:00,58.5,24.6,30.30,North,9,0.0,2.0,27,0.00,,,0.10,230,LWC V2.00 B727,2013-04-28 00:14:00,
2013-04-27 18:19:00,58.5,24.6,30.30,North,9,0.0,0.0,27,0.00,,,0.10,53,LWC V2.00 B727,2013-04-28 00:19:00,
2013-04-27 18:24:00,58.5,25.5,30.30,North,0,0.0,1.0,28,0.00,,,0.10,44,LWC V2.00 B727,2013-04-28 00:24:00,
2013-04-27 18:29:00,58.5,23.7,30.30,North,0,0.0,0.0,26,0.00,,,0.10,40,LWC V2.00 B727,2013-04-28 00:29:00,
2013-04-27 18:34:00,58.6,25.6,30.29,North,5,0.0,0.0,28,0.00,,,0.10,39,LWC V2.00 B727,2013-04-28 00:34:00,
2013-04-27 18:39:00,58.5,24.6,30.30,North,0,0.0,1.0,27,0.00,,,0.10,40,LWC V2.00 B727,2013-04-28 00:39:00,
2013-04-27 18:44:00,58.5,25.5,30.29,North,0,0.0,1.0,28,0.00,,,0.10,44,LWC V2.00 B727,2013-04-28 00:44:00,
2013-04-27 18:49:00,58.3,24.5,30.29,North,0,0.0,0.0,27,0.00,,,0.10,46,LWC V2.00 B727,2013-04-28 00:49:00,
2013-04-27 18:54:00,58.2,25.3,30.29,North,0,0.0,1.0,28,0.00,,,0.10,44,LWC V2.00 B727,2013-04-28 00:54:00,
2013-04-27 18:59:00,58.1,24.3,30.29,North,0,0.0,0.0,27,0.00,,,0.10,42,LWC V2.00 B727,2013-04-28 00:59:00,
2013-04-27 19:04:00,58.0,25.9,30.29,North,0,0.0,0.0,29,0.00,,,0.10,37,LWC V2.00 B727,2013-04-28 01:04:00,
2013-04-27 19:09:00,57.9,25.0,30.28,North,0,0.0,0.0,28,0.00,,,0.10,32,LWC V2.00 B727,2013-04-28 01:09:00,
2013-04-27 19:14:00,57.8,24.9,30.28,North,0,0.0,0.0,28,0.00,,,0.10,26,LWC V2.00 B727,2013-04-28 01:14:00,
2013-04-27 19:19:00,57.5,28.6,30.28,North,0,0.0,1.0,33,0.00,,,0.10,23,LWC V2.00 B727,2013-04-28 01:19:00,
2013-04-27 19:24:00,56.6,27.8,30.28,SSE,150,2.0,3.0,33,0.00,,,0.10,19,LWC V2.00 B727,2013-04-28 01:24:00,
2013-04-27 19:29:00,55.7,27.8,30.28,SSE,150,0.0,3.0,34,0.00,,,0.10,19,LWC V2.00 B727,2013-04-28 01:29:00,
2013-04-27 19:34:00,54.8,25.5,30.28,SSE,150,0.0,2.0,32,0.00,,,0.10,16,LWC V2.00 B727,2013-04-28 01:34:00,
2013-04-27 19:39:00,54.4,25.2,30.28,SSE,150,0.0,0.0,32,0.00,,,0.10,12,LWC V2.00 B727,2013-04-28 01:39:00,
2013-04-27 19:44:00,54.0,27.0,30.28,SSE,150,0.0,1.0,35,0.00,,,0.10,7,LWC V2.00 B727,2013-04-28 01:44:00,
2013-04-27 19:49:00,53.3,27.0,30.28,SSE,150,0.0,1.0,36,0.00,,,0.10,0,LWC V2.00 B727,2013-04-28 01:49:00,
2013-04-27 19:54:00,52.6,27.7,30.28,SSE,148,0.0,1.0,38,0.00,,,0.10,0,LWC V2.00 B727,2013-04-28 01:54:00,
2013-04-27 19:59:00,51.4,27.3,30.28,SE,146,1.0,1.0,39,0.00,,,0.10,0,LWC V2.00 B727,2013-04-28 01:59:00,
2013-04-27 20:04:00,50.3,26.3,30.28,SSE,147,3.0,5.0,39,0.00,,,0.10,0,LWC V2.00 B727,2013-04-28 02:04:00,
2013-04-27 20:09:00,49.0,25.7,30.28,SSE,163,2.0,4.0,40,0.00,,,0.10,0,LWC V2.00 B727,2013-04-28 02:09:00,
2013-04-27 20:14:00,47.9,25.3,30.28,South,169,1.0,4.0,41,0.00,,,0.10,0,LWC V2.00 B727,2013-04-28 02:14:00,
2013-04-27 20:19:00,46.9,25.0,30.29,South,175,3.0,6.0,42,0.00,,,0.10,0,LWC V2.00 B727,2013-04-28 02:19:00,
2013-04-27 20:24:00,46.3,24.5,30.29,South,180,4.0,6.0,42,0.00,,,0.10,0,LWC V2.00 B727,2013-04-28 02:24:00,
2013-04-27 20:29:00,45.9,24.1,30.29,South,176,2.0,6.0,42,0.00,,,0.10,0,LWC V2.00 B727,2013-04-28 02:29:00,
2013-04-27 20:34:00,45.5,23.8,30.29,SSE,165,4.0,6.0,42,0.00,,,0.10,0,LWC V2.00 B727,2013-04-28 02:34:00,
2013-04-27 20:39:00,45.2,23.5,30.29,SE,144,2.0,5.0,42,0.00,,,0.10,0,LWC V2.00 B727,2013-04-28 02:39:00,
2013-04-27 20:44:00,45.0,23.3,30.29,SSE,148,3.0,5.0,42,0.00,,,0.10,0,LWC V2.00 B727,2013-04-28 02:44:00,
2013-04-27 20:49:00,44.8,23.7,30.30,SSE,155,3.0,5.0,43,0.00,,,0.10,0,LWC V2.00 B727,2013-04-28 02:49:00,
2013-04-27 20:54:00,44.5,23.4,30.29,SSE,157,1.0,3.0,43,0.00,,,0.10,0,LWC V2.00 B727,2013-04-28 02:54:00,
2013-04-27 20:59:00,44.3,22.7,30.30,SE,137,1.0,7.0,42,0.00,,,0.10,0,LWC V2.00 B727,2013-04-28 02:59:00,
2013-04-27 21:04:00,44.2,23.1,30.30,SSE,159,4.0,4.0,43,0.00,,,0.10,0,LWC V2.00 B727,2013-04-28 03:04:00,
2013-04-27 21:09:00,44.0,22.4,30.30,SSE,165,4.0,6.0,42,0.00,,,0.10,0,LWC V2.00 B727,2013-04-28 03:09:00,
2013-04-27 21:14:00,43.9,22.9,30.30,SSE,156,2.0,7.0,43,0.00,,,0.10,0,LWC V2.00 B727,2013-04-28 03:14:00,
2013-04-27 21:19:00,43.7,22.7,30.30,South,180,5.0,5.0,43,0.00,,,0.10,0,LWC V2.00 B727,2013-04-28 03:19:00,
2013-04-27 21:20:00,43.6,22.6,30.30,SSE,149,4.0,5.0,43,0.00,,,0.10,0,LWC V2.00 B727,2013-04-28 03:20:00,
2013-04-27 21:25:00,43.4,22.4,30.30,SSE,155,3.0,6.0,43,0.00,,,0.10,0,LWC V2.00 B727,2013-04-28 03:25:00,
2013-04-27 21:30:00,43.3,22.3,30.31,SSE,149,2.0,5.0,43,0.00,,,0.10,0,LWC V2.00 B727,2013-04-28 03:30:00,
2013-04-27 21:35:00,43.3,22.3,30.31,SSE,167,4.0,6.0,43,0.00,,,0.10,0,LWC V2.00 B727,2013-04-28 03:35:00,
2013-04-27 21:40:00,43.2,22.2,30.31,SSE,168,3.0,6.0,43,0.00,,,0.10,0,LWC V2.00 B727,2013-04-28 03:40:00,
2013-04-27 21:45:00,43.2,22.2,30.31,SSE,163,1.0,5.0,43,0.00,,,0.10,0,LWC V2.00 B727,2013-04-28 03:45:00,
2013-04-27 21:50:00,43.1,22.1,30.31,South,180,5.0,5.0,43,0.00,,,0.10,0,LWC V2.00 B727,2013-04-28 03:50:00,
2013-04-27 21:55:00,43.0,22.1,30.31,SE,134,3.0,5.0,43,0.00,,,0.10,0,LWC V2.00 B727,2013-04-28 03:55:00,
2013-04-27 22:00:00,42.9,22.0,30.31,SSE,160,2.0,4.0,43,0.00,,,0.10,0,LWC V2.00 B727,2013-04-28 04:00:00,
2013-04-27 22:01:00,42.9,22.0,30.31,SSE,161,2.0,4.0,43,0.00,,,0.10,0,LWC V2.00 B727,2013-04-28 04:01:00,
2013-04-27 22:06:00,42.7,21.8,30.31,SSE,163,0.0,4.0,43,0.00,,,0.10,0,LWC V2.00 B727,2013-04-28 04:06:00,
2013-04-27 22:09:00,42.5,21.6,30.31,SSE,163,3.0,4.0,43,0.00,,,0.10,0,LWC V2.00 B727,2013-04-28 04:09:00,
2013-04-27 22:14:00,42.3,21.4,30.31,SSE,164,2.0,3.0,43,0.00,,,0.10,0,LWC V2.00 B727,2013-04-28 04:14:00,
2013-04-27 22:19:00,42.1,21.2,30.31,SE,141,2.0,3.0,43,0.00,,,0.10,0,LWC V2.00 B727,2013-04-28 04:19:00,
2013-04-27 22:24:00,41.9,21.1,30.31,SSE,149,1.0,4.0,43,0.00,,,0.10,0,LWC V2.00 B727,2013-04-28 04:24:00,
2013-04-27 22:29:00,41.7,21.4,30.31,SSE,150,0.0,0.0,44,0.00,,,0.10,0,LWC V2.00 B727,2013-04-28 04:29:00,
2013-04-27 22:34:00,41.5,21.2,30.31,SSE,153,1.0,1.0,44,0.00,,,0.10,0,LWC V2.00 B727,2013-04-28 04:34:00,
2013-04-27 22:39:00,41.3,21.0,30.31,SSE,153,1.0,3.0,44,0.00,,,0.10,0,LWC V2.00 B727,2013-04-28 04:39:00,
2013-04-27 22:44:00,41.1,20.9,30.31,SSE,155,2.0,3.0,44,0.00,,,0.10,0,LWC V2.00 B727,2013-04-28 04:44:00,
2013-04-27 22:49:00,40.9,21.2,30.31,SSE,161,3.0,5.0,45,0.00,,,0.10,0,LWC V2.00 B727,2013-04-28 04:49:00,
2013-04-27 22:54:00,40.8,21.1,30.31,SSE,163,3.0,4.0,45,0.00,,,0.10,0,LWC V2.00 B727,2013-04-28 04:54:00,
2013-04-27 22:59:00,40.7,21.0,30.31,SSE,163,3.0,4.0,45,0.00,,,0.10,0,LWC V2.00 B727,2013-04-28 04:59:00,
2013-04-27 23:04:00,40.7,21.0,30.31,SSE,161,2.0,5.0,45,0.00,,,0.10,0,LWC V2.00 B727,2013-04-28 05:04:00,
2013-04-27 23:09:00,40.7,21.0,30.31,SSE,165,2.0,4.0,45,0.00,,,0.10,0,LWC V2.00 B727,2013-04-28 05:09:00,
2013-04-27 23:14:00,40.7,21.0,30.31,South,175,4.0,6.0,45,0.00,,,0.10,0,LWC V2.00 B727,2013-04-28 05:14:00,
2013-04-27 23:19:00,40.6,20.9,30.31,South,172,3.0,4.0,45,0.00,,,0.10,0,LWC V2.00 B727,2013-04-28 05:19:00,
2013-04-27 23:24:00,40.5,20.9,30.31,South,174,2.0,4.0,45,0.00,,,0.10,0,LWC V2.00 B727,2013-04-28 05:24:00,
2013-04-27 23:29:00,40.4,20.8,30.31,SSE,162,4.0,4.0,45,0.00,,,0.10,0,LWC V2.00 B727,2013-04-28 05:29:00,
2013-04-27 23:34:00,40.4,20.8,30.31,SSE,156,3.0,4.0,45,0.00,,,0.10,0,LWC V2.00 B727,2013-04-28 05:34:00,
2013-04-27 23:39:00,40.2,20.6,30.31,SSE,155,2.0,6.0,45,0.00,,,0.10,0,LWC V2.00 B727,2013-04-28 05:39:00,
2013-04-27 23:44:00,40.2,21.1,30.31,SSE,167,1.0,5.0,46,0.00,,,0.10,0,LWC V2.00 B727,2013-04-28 05:44:00,
2013-04-27 23:49:00,40.0,21.4,30.31,South,172,2.0,5.0,47,0.00,,,0.10,0,LWC V2.00 B727,2013-04-28 05:49:00,
2013-04-27 23:54:00,39.8,20.7,30.31,South,180,2.0,4.0,46,0.00,,,0.10,0,LWC V2.00 B727,2013-04-28 05:54:00,
2013-04-27 23:59:00,39.6,20.5,30.31,SSE,165,2.0,4.0,46,0.00,,,0.10,0,LWC V2.00 B727,2013-04-28 05:59:00,